• In Österreich
  • Länderverzeichnis
  • Für 7 Tage
  • Wassertemperatur
  • Satellitenkarten
  • Wetterkarte
  • News
  • Widgets
  • user-avatar
    Anmelden

    Stündliche Wetter Norwich

    Heute, 19 September, Mittwoch

    Zeit Temperatur Niederschläge Wind Luftdruck Luftfeuchtigkeit
    00:00 +17°C° 0 mm 7 m/S 755 mmHg 72%
    01:00 +17°C° 0 mm 7 m/S 755 mmHg 71%
    02:00 +17°C° 0 mm 7 m/S 755 mmHg 70%
    03:00 +18°C° 0 mm 7 m/S 755 mmHg 69%
    04:00 +17°C° 0 mm 7 m/S 755 mmHg 72%
    05:00 +17°C° 0 mm 7 m/S 755 mmHg 75%
    06:00 +16°C° 0 mm 7 m/S 755 mmHg 79%
    07:00 +18°C° 0 mm 8 m/S 755 mmHg 74%
    08:00 +19°C° 0 mm 9 m/S 755 mmHg 70%
    09:00 +21°C° 0 mm 10 m/S 755 mmHg 65%
    10:00 +22°C° 0 mm 10 m/S 755 mmHg 60%
    11:00 +23°C° 0 mm 11 m/S 755 mmHg 55%
    12:00 +24°C° 0 mm 12 m/S 754 mmHg 50%
    13:00 +23°C° 0 mm 12 m/S 754 mmHg 51%
    14:00 +23°C° 0 mm 12 m/S 754 mmHg 53%
    15:00 +23°C° 0 mm 12 m/S 754 mmHg 55%
    16:00 +22°C° 0 mm 11 m/S 754 mmHg 57%
    17:00 +21°C° 0 mm 10 m/S 755 mmHg 60%
    18:00 +21°C° 0 mm 9 m/S 755 mmHg 62%
    19:00 +19°C° 0 mm 9 m/S 756 mmHg 64%
    20:00 +18°C° 0 mm 8 m/S 756 mmHg 65%
    21:00 +17°C° 0 mm 8 m/S 757 mmHg 66%
    22:00 +16°C° 0 mm 7 m/S 757 mmHg 67%
    23:00 +15°C° 0 mm 7 m/S 757 mmHg 68%

    Morgen, 20 September, Donnerstag

    Zeit Temperatur Niederschläge Wind Luftdruck Luftfeuchtigkeit
    00:00 +14°C° 0 mm 6 m/S 758 mmHg 69%
    01:00 +14°C° 0 mm 6 m/S 757 mmHg 71%
    02:00 +14°C° 0 mm 6 m/S 757 mmHg 73%
    03:00 +14°C° 0 mm 5 m/S 757 mmHg 75%
    04:00 +15°C° 0.5 mm 6 m/S 757 mmHg 76%
    05:00 +16°C° 0.5 mm 7 m/S 756 mmHg 78%
    06:00 +17°C° 0.5 mm 8 m/S 756 mmHg 80%
    07:00 +18°C° 0.1 mm 8 m/S 756 mmHg 77%
    08:00 +18°C° 0.1 mm 9 m/S 756 mmHg 75%
    09:00 +19°C° 0.1 mm 9 m/S 756 mmHg 72%
    10:00 +19°C° 0.7 mm 9 m/S 755 mmHg 71%
    11:00 +19°C° 0.7 mm 9 m/S 755 mmHg 69%
    12:00 +21°C° 0.7 mm 8 m/S 755 mmHg 68%
    13:00 +21°C° 0.1 mm 9 m/S 754 mmHg 67%
    14:00 +21°C° 0.1 mm 9 m/S 754 mmHg 66%
    15:00 +22°C° 0.1 mm 9 m/S 753 mmHg 65%
    16:00 +21°C° 0 mm 10 m/S 752 mmHg 66%
    17:00 +21°C° 0 mm 10 m/S 751 mmHg 67%
    18:00 +19°C° 0 mm 10 m/S 751 mmHg 68%
    19:00 +19°C° 0 mm 10 m/S 750 mmHg 67%
    20:00 +19°C° 0 mm 11 m/S 749 mmHg 67%
    21:00 +19°C° 0 mm 11 m/S 748 mmHg 66%
    22:00 +19°C° 0.3 mm 12 m/S 747 mmHg 69%
    23:00 +19°C° 0.3 mm 12 m/S 746 mmHg 72%

    übermorgen, 21 September, Freitag

    Zeit Temperatur Niederschläge Wind Luftdruck Luftfeuchtigkeit
    00:00 +19°C° 0.3 mm 13 m/S 745 mmHg 75%
    01:00 +17°C° 0.5 mm 13 m/S 745 mmHg 73%
    02:00 +15°C° 0.5 mm 14 m/S 745 mmHg 71%
    03:00 +14°C° 0.5 mm 14 m/S 745 mmHg 68%
    04:00 +12°C° 0 mm 13 m/S 746 mmHg 69%
    05:00 +10°C° 0 mm 13 m/S 747 mmHg 69%
    06:00 +8°C° 0 mm 12 m/S 748 mmHg 69%
    07:00 +9°C° 0 mm 12 m/S 749 mmHg 63%
    08:00 +10°C° 0 mm 12 m/S 750 mmHg 57%
    09:00 +12°C° 0 mm 12 m/S 751 mmHg 51%
    10:00 +12°C° 0 mm 13 m/S 751 mmHg 48%
    11:00 +13°C° 0 mm 13 m/S 752 mmHg 44%
    12:00 +14°C° 0 mm 13 m/S 752 mmHg 41%
    13:00 +14°C° 0.1 mm 13 m/S 753 mmHg 42%
    14:00 +14°C° 0.1 mm 13 m/S 753 mmHg 44%
    15:00 +14°C° 0.1 mm 13 m/S 753 mmHg 46%
    16:00 +13°C° 0 mm 12 m/S 754 mmHg 49%
    17:00 +13°C° 0 mm 11 m/S 755 mmHg 51%
    18:00 +12°C° 0 mm 10 m/S 756 mmHg 54%
    19:00 +11°C° 0 mm 10 m/S 756 mmHg 57%
    20:00 +11°C° 0 mm 10 m/S 757 mmHg 60%
    21:00 +9°C° 0 mm 10 m/S 758 mmHg 64%
    22:00 +10°C° 0 mm 9 m/S 759 mmHg 66%
    23:00 +8°C° 0 mm 9 m/S 759 mmHg 68%

    22 September, Samstag

    Zeit Temperatur Niederschläge Wind Luftdruck Luftfeuchtigkeit
    00:00 +9°C° 0 mm 8 m/S 759 mmHg 70%
    01:00 +9°C° 0 mm 8 m/S 760 mmHg 73%
    02:00 +7°C° 0 mm 8 m/S 760 mmHg 76%
    03:00 +8°C° 0 mm 7 m/S 761 mmHg 79%
    04:00 +6°C° 0 mm 7 m/S 761 mmHg 80%
    05:00 +6°C° 0 mm 7 m/S 761 mmHg 81%
    06:00 +6°C° 0 mm 7 m/S 762 mmHg 83%
    07:00 +8°C° 0 mm 7 m/S 762 mmHg 74%
    08:00 +10°C° 0 mm 7 m/S 763 mmHg 65%
    09:00 +11°C° 0 mm 8 m/S 763 mmHg 55%
    10:00 +12°C° 0 mm 7 m/S 763 mmHg 52%
    11:00 +14°C° 0 mm 7 m/S 763 mmHg 48%
    12:00 +15°C° 0 mm 7 m/S 764 mmHg 44%
    13:00 +15°C° 0 mm 7 m/S 764 mmHg 44%
    14:00 +15°C° 0 mm 7 m/S 764 mmHg 44%
    15:00 +15°C° 0 mm 7 m/S 764 mmHg 43%
    16:00 +14°C° 0 mm 6 m/S 764 mmHg 47%
    17:00 +13°C° 0 mm 5 m/S 764 mmHg 51%
    18:00 +12°C° 0 mm 4 m/S 764 mmHg 55%
    19:00 +12°C° 0 mm 3 m/S 763 mmHg 57%
    20:00 +12°C° 0 mm 3 m/S 763 mmHg 58%
    21:00 +13°C° 0 mm 2 m/S 763 mmHg 59%
    22:00 +11°C° 0.2 mm 3 m/S 762 mmHg 63%
    23:00 +11°C° 0.2 mm 3 m/S 762 mmHg 68%

    23 September, Sonntag

    Zeit Temperatur Niederschläge Wind Luftdruck Luftfeuchtigkeit
    00:00 +11°C° 0.2 mm 4 m/S 761 mmHg 73%
    01:00 +10°C° 1 mm 5 m/S 760 mmHg 77%
    02:00 +10°C° 1 mm 6 m/S 759 mmHg 81%
    03:00 +10°C° 1 mm 7 m/S 757 mmHg 86%
    04:00 +10°C° 1.7 mm 9 m/S 755 mmHg 85%
    05:00 +11°C° 1.7 mm 11 m/S 753 mmHg 85%
    06:00 +12°C° 1.7 mm 13 m/S 751 mmHg 84%
    07:00 +13°C° 2.1 mm 13 m/S 749 mmHg 87%
    08:00 +15°C° 2.1 mm 12 m/S 747 mmHg 89%
    09:00 +17°C° 2.1 mm 12 m/S 745 mmHg 91%
    10:00 +18°C° 1 mm 13 m/S 742 mmHg 85%
    11:00 +18°C° 1 mm 14 m/S 740 mmHg 79%
    12:00 +19°C° 1 mm 15 m/S 738 mmHg 73%
    13:00 +18°C° 0.3 mm 14 m/S 736 mmHg 73%
    14:00 +17°C° 0.3 mm 14 m/S 734 mmHg 74%
    15:00 +15°C° 0.3 mm 13 m/S 732 mmHg 74%
    16:00 +14°C° 0.3 mm 13 m/S 733 mmHg 76%
    17:00 +14°C° 0.3 mm 13 m/S 733 mmHg 78%
    18:00 +13°C° 0.3 mm 13 m/S 734 mmHg 80%
    19:00 +11°C° 0.5 mm 17 m/S 737 mmHg 77%
    20:00 +11°C° 0.5 mm 21 m/S 741 mmHg 74%
    21:00 +9°C° 0.5 mm 24 m/S 744 mmHg 71%
    22:00 +10°C° 0.1 mm 22 m/S 748 mmHg 69%
    23:00 +10°C° 0.1 mm 20 m/S 752 mmHg 67%

    24 September, Montag

    Zeit Temperatur Niederschläge Wind Luftdruck Luftfeuchtigkeit
    00:00 +10°C° 0.1 mm 18 m/S 756 mmHg 65%
    01:00 +9°C° 0.1 mm 17 m/S 758 mmHg 65%
    02:00 +7°C° 0.1 mm 16 m/S 760 mmHg 64%
    03:00 +8°C° 0.1 mm 14 m/S 762 mmHg 63%
    04:00 +6°C° 0 mm 14 m/S 764 mmHg 65%
    05:00 +7°C° 0 mm 13 m/S 765 mmHg 66%
    06:00 +5°C° 0 mm 12 m/S 766 mmHg 68%
    07:00 +7°C° 0 mm 11 m/S 767 mmHg 65%
    08:00 +8°C° 0 mm 11 m/S 769 mmHg 62%
    09:00 +8°C° 0 mm 10 m/S 770 mmHg 59%
    10:00 +9°C° 0 mm 10 m/S 771 mmHg 55%
    11:00 +11°C° 0 mm 9 m/S 771 mmHg 52%
    12:00 +11°C° 0 mm 8 m/S 772 mmHg 48%
    13:00 +12°C° 0 mm 8 m/S 772 mmHg 46%
    14:00 +12°C° 0 mm 7 m/S 772 mmHg 44%
    15:00 +12°C° 0 mm 7 m/S 772 mmHg 42%
    16:00 +11°C° 0 mm 6 m/S 773 mmHg 45%
    17:00 +10°C° 0 mm 5 m/S 773 mmHg 49%
    18:00 +10°C° 0 mm 4 m/S 773 mmHg 53%
    19:00 +10°C° 0 mm 4 m/S 773 mmHg 54%
    20:00 +9°C° 0 mm 3 m/S 774 mmHg 56%
    21:00 +9°C° 0 mm 3 m/S 774 mmHg 57%
    22:00 +7°C° 0 mm 4 m/S 774 mmHg 61%
    23:00 +7°C° 0 mm 4 m/S 774 mmHg 65%
    Mehr zeigen